Location: Red Deer
(52.2681°N, 113.8112°W)
Time: 20:00:11
(UTC-07:00)

N. Korean satellite - Visible Passes

Search period start: 26 November 2022 00:00
Search period end: 06 December 2022 00:00
Orbit: 422 x 454 km, 97.3° (Epoch: 26 November)

Date Brightness Start Highest point End Pass type
(mag) Time Alt. Az. Time Alt. Az. Time Alt. Az.
26 Nov 9.9 04:49:21 10° ENE 04:50:39 12° E 04:51:58 10° ESE visible
26 Nov 6.3 06:20:11 10° N 06:23:36 65° WNW 06:26:59 10° SSW visible
27 Nov 7.6 05:41:39 10° NNE 05:44:58 43° E 05:48:14 10° S visible
27 Nov 7.9 07:14:48 10° NNW 07:17:13 18° WNW 07:19:37 10° WSW visible
27 Nov 9.4 17:49:38 10° SW 17:52:13 20° W 17:54:51 10° NW visible
28 Nov 9.4 05:03:46 10° NE 05:06:04 17° E 05:08:21 10° SE visible
28 Nov 6.7 06:35:32 10° N 06:38:48 43° WNW 06:42:04 10° SW visible
28 Nov 7.3 17:10:04 10° S 17:13:22 55° W 17:16:44 10° NNW visible
29 Nov 6.8 05:56:45 10° NNE 06:00:11 65° ESE 06:03:34 10° S visible
29 Nov 8.2 07:30:33 10° NNW 07:32:15 13° WNW 07:33:57 10° W visible
29 Nov 9.7 18:05:34 10° SW 18:07:30 14° W 18:09:28 10° NW visible
30 Nov 8.8 05:18:28 10° NE 05:21:19 24° E 05:24:07 10° SSE visible
30 Nov 7.2 06:50:49 10° N 06:53:51 30° WNW 06:56:52 10° SW visible
30 Nov 8.2 17:25:21 10° SSW 17:28:29 37° W 17:31:42 10° NNW visible
01 Dec 6.3 06:11:47 10° NNE 06:15:14 83° WNW 06:18:38 10° SSW visible
01 Dec 10.2 18:22:24 10° W 18:22:40 10° W 18:22:56 10° W visible
02 Dec 8.1 05:33:12 10° NNE 05:36:21 34° E 05:39:29 10° SSE visible
02 Dec 7.6 07:06:02 10° NNW 07:08:43 22° WNW 07:11:22 10° WSW visible
02 Dec 8.9 17:40:38 10° SSW 17:43:30 25° W 17:46:24 10° NW visible
03 Dec 9.7 04:55:29 10° ENE 04:57:14 13° E 04:58:59 10° ESE visible
03 Dec 6.4 06:26:44 10° N 06:30:05 55° WNW 06:33:25 10° SSW visible
03 Dec 6.7 17:01:09 10° S 17:04:31 72° WSW 17:07:57 10° NNW visible
04 Dec 7.3 05:47:53 10° NNE 05:51:14 50° E 05:54:32 10° S visible
04 Dec 8.0 07:21:15 10° NNW 07:23:24 16° WNW 07:25:32 10° W visible
04 Dec 9.5 17:55:58 10° SW 17:58:23 18° W 18:00:50 10° NW visible
05 Dec 9.2 05:09:37 10° NE 05:12:07 19° E 05:14:36 10° SE visible
05 Dec 6.9 06:41:36 10° N 06:44:47 37° WNW 06:47:55 10° SW visible
05 Dec 7.6 17:15:58 10° S 17:19:15 47° W 17:22:35 10° NNW visible
